Temp
76 76 70 70 71 72 70 68 67 71 72 69 65 66 67 71 72 72 74 74 71 69 69 69 69 69 68 66 66 65 64 63 63 60 58 59 65 67 68 70 70 70 70 69
75 70 73 72 71 71 71 69 69 71 72 71 66 66 67 68 66 67 68 72 71 67 67 67 67 65 68 66 66 66 63 59 59 59 61 65 68 69 66 67 67 68 67 67
72 73 75 73 72 71 69 68 68 67 70 69 68 66 65 68 68 68 69 70 69 67 64 65 64 63 66 64 65 64 66 61 60 62 62 63 64 65 68 67 67 67 65 65
73 76 74 74 70 71 66 72 70 68 67 62 65 59 64 64 66 65 65 67 67 66 67 66 66 63 62 62 63 61 62 61 61 62 62 60 60 61 63 65 65 65 65 64
70 72 72 71 70 72 68 70 67 66 65 62 62 61 64 64 64 63 63 62 65 66 66 66 65 63 62 62 61 61 60 60 62 61 61 62 61 61 64 63 61 63 63 63
73 76 75 73 72 72 71 70 66 63 63 57 58 59 64 64 61 62 60 60 61 61 57 57 57 57 57 59 59 59 58 57 58 60 60 59 59 59 61 60 61 63 64 63
70 70 74 74 71 72 72 66 57 55 55 53 57 56 61 62 64 65 57 55 53 54 54 53 53 55 59 62 63 64 61 57 59 61 61 60 59 59 58 58 60 58 61 61
61 60 69 73 70 66 66 62 57 46 48 54 57 54 61 61 62 61 56 53 52 52 53 56 60 63 64 62 61 61 60 59 59 59 59 60 60 61 60 60 59 60 60 61
61 61 70 71 71 70 63 61 61 54 52 52 58 57 60 60 59 58 55 54 53 55 59 60 61 61 60 59 58 58 58 59 59 58 59 59 59 58 58 58 58 60 59 61
63 58 65 68 71 69 66 65 56 59 46 45 54 53 57 56 57 56 55 55 56 59 60 59 59 58 57 56 59 58 58 57 57 58 59 59 58 59 59 59 58 58 59 59
65 61 63 66 62 59 64 61 58 56 54 47 46 54 59 58 62 58 56 57 58 58 58 59 58 57 56 59 59 57 57 57 57 58 58 58 59 59 59 59 59 59 58 59
62 60 57 59 64 65 64 59 57 52 49 53 49 50 57 58 60 57 56 56 57 57 57 56 54 57 57 57 57 57 56 57 57 58 58 58 58 59 59 59 59 59 59 60
63 56 52 56 60 63 61 61 58 54 52 49 47 53 57 57 56 57 55 55 56 55 53 50 51 54 53 55 55 56 56 57 58 58 58 59 58 58 58 59 59 59 59 60
62 55 56 51 55 58 55 57 57 56 49 51 52 51 54 53 53 54 54 55 54 51 48 50 56 56 55 54 54 55 56 58 58 58 58 58 58 58 58 59 59 59 60 59
62 56 56 59 58 57 56 54 54 53 52 47 50 49 50 54 55 56 54 52 49 49 52 55 54 54 55 54 55 56 56 57 57 57 58 58 59 59 59 59 59 59 59 59
58 56 55 54 56 56 53 53 53 52 52 52 51 48 53 55 56 53 50 49 54 53 53 53 54 54 53 53 54 55 56 56 57 57 57 59 59 59 58 58 58 58 58 58
57 55 52 50 52 53 47 50 52 52 53 52 48 51 56 55 53 49 52 53 51 51 52 52 52 52 53 54 54 54 55 56 56 57 58 58 59 58 57 57 57 56 55 55
55 52 52 49 51 40 49 58 57 53 52 54 54 55 56 56 54 53 54 53 51 51 51 52 53 53 54 55 56 55 56 56 56 56 57 58 57 57 56 56 55 54 54 53
56 54 47 44 44 47 49 51 50 49 50 55 53 54 56 56 55 51 52 52 51 51 52 52 53 53 54 55 55 54 55 56 57 56 56 56 55 56 55 54 52 52 52 52
57 56 50 47 39 35 46 53 58 56 46 55 55 54 54 55 49 52 51 52 52 52 52 52 54 54 56 56 55 55 56 56 56 56 55 55 55 54 52 50 49 50 52 51
50 50 45 39 37 45 55 57 58 43 45 54 55 53 52 50 49 49 52 52 52 52 52 54 54 53 54 56 56 55 55 54 56 56 54 52 51 48 45 46 46 49 50 48
48 46 47 46 43 40 55 55 49 52 53 54 53 52 50 50 49 49 49 50 50 51 52 54 53 54 56 56 56 56 52 54 56 56 52 53 48 48 49 48 47 47 45 44
49 53 49 49 49 52 55 54 54 55 55 53 53 51 50 48 46 46 48 50 51 52 52 53 53 53 56 57 56 54 54 56 55 51 50 49 48 48 47 48 47 44 45 43
55 55 54 51 51 53 53 54 55 56 52 53 52 50 50 46 49 49 50 51 52 53 53 53 54 55 55 56 54 55 55 55 52 50 50 48 47 48 48 47 46 45 43 41
57 55 51 52 52 53 54 55 54 53 53 52 51 50 48 49 49 50 51 51 52 52 53 54 54 54 53 55 52 49 50 49 48 47 47 48 48 46 45 45 45 44 44 41
57 55 54 53 56 56 54 54 55 53 51 51 50 49 49 50 50 50 52 52 52 53 54 54 54 53 53 53 50 52 51 49 47 48 47 46 45 45 44 45 46 43 41 40
MSLP
1010.58 1010.24 1010.42 1010.66 1010.65 1010.62 1010.61 1010.47 1010.42 1010.58 1011.16 1011.44 1012.01 1012.25 1012.55 1012.50 1012.26 1012.32 1012.28 1012.63 1013.95 1014.78 1015.86 1016.72 1017.59 1018.57 1019.34 1020.32 1021.01 1021.59 1021.94 1022.24 1022.70 1022.97 1022.84 1022.44 1022.38 1021.39 1020.75 1020.74 1021.02 1021.04 1021.00 1021.30
1010.49 1010.28 1010.80 1010.89 1010.85 1010.72 1010.66 1010.58 1010.60 1010.87 1011.27 1011.43 1012.02 1012.16 1012.72 1013.10 1013.46 1013.56 1013.45 1013.22 1014.47 1015.58 1016.71 1017.64 1018.59 1019.63 1020.13 1020.68 1021.14 1021.18 1021.34 1021.25 1022.46 1022.98 1023.09 1022.56 1022.97 1021.83 1021.84 1020.66 1020.94 1020.94 1021.28 1021.36
1010.39 1010.87 1010.79 1010.77 1010.87 1010.70 1010.87 1010.86 1011.06 1011.30 1011.43 1011.80 1011.92 1011.94 1012.60 1013.43 1013.90 1014.19 1014.27 1014.59 1015.38 1016.42 1017.47 1018.25 1019.22 1020.03 1020.58 1021.06 1020.88 1020.97 1021.17 1020.87 1020.83 1022.21 1022.39 1022.33 1022.49 1021.94 1021.16 1020.89 1020.81 1021.12 1021.40 1021.30
1010.70 1010.81 1010.72 1010.72 1010.91 1011.12 1011.03 1011.36 1011.47 1011.49 1011.58 1011.60 1012.36 1011.77 1012.58 1013.58 1014.11 1014.73 1015.33 1015.82 1016.52 1017.27 1017.92 1018.58 1019.35 1020.17 1020.71 1021.28 1021.30 1021.76 1021.41 1021.73 1021.56 1021.90 1022.00 1022.26 1022.37 1021.57 1021.41 1021.18 1021.49 1021.46 1021.17 1021.21
1011.27 1011.05 1010.99 1010.99 1011.45 1011.53 1011.82 1011.86 1011.99 1011.93 1011.81 1012.19 1012.44 1012.58 1012.77 1013.65 1014.11 1015.24 1016.36 1017.15 1017.66 1018.22 1018.79 1019.37 1020.09 1020.75 1021.12 1021.37 1020.79 1020.63 1021.16 1021.60 1021.72 1022.25 1022.04 1022.04 1022.19 1022.00 1021.63 1021.69 1021.63 1021.29 1021.02 1020.96
1011.46 1011.62 1011.54 1011.61 1011.82 1011.89 1012.12 1012.17 1012.28 1012.46 1012.38 1012.14 1012.96 1013.31 1012.71 1013.92 1015.01 1015.97 1017.44 1018.15 1018.68 1019.25 1020.03 1020.66 1021.23 1021.58 1021.93 1021.97 1022.22 1022.09 1022.55 1022.50 1022.21 1022.54 1022.50 1022.60 1022.40 1021.92 1021.51 1021.58 1021.38 1020.85 1020.50 1020.47
1012.04 1012.08 1012.12 1012.14 1011.92 1012.16 1012.20 1012.27 1012.00 1012.11 1012.28 1012.66 1013.64 1013.91 1013.75 1014.89 1015.70 1016.48 1018.26 1019.36 1020.12 1020.67 1021.20 1021.64 1021.88 1022.09 1022.09 1022.12 1022.29 1022.30 1022.58 1022.52 1022.61 1022.49 1022.40 1022.46 1022.13 1021.99 1021.72 1021.70 1021.25 1021.03 1020.35 1020.30
1012.87 1012.64 1012.69 1012.74 1012.75 1012.89 1012.92 1013.42 1013.28 1012.95 1013.17 1013.21 1014.00 1013.80 1014.47 1015.80 1016.77 1017.79 1019.27 1020.41 1021.39 1021.82 1022.14 1022.31 1022.51 1022.54 1022.49 1022.82 1022.88 1022.71 1022.44 1022.58 1022.83 1022.84 1022.79 1022.31 1021.98 1021.70 1021.63 1021.55 1021.27 1020.89 1021.07 1020.64
1013.69 1013.43 1013.39 1013.45 1013.51 1013.62 1013.71 1013.97 1014.86 1014.50 1014.80 1014.24 1013.77 1014.52 1015.38 1016.34 1017.41 1018.65 1019.86 1020.95 1021.78 1022.33 1022.44 1022.73 1023.18 1023.38 1023.42 1023.45 1023.51 1023.20 1022.91 1022.93 1022.90 1022.62 1022.24 1021.99 1021.84 1021.93 1021.81 1021.71 1021.64 1021.31 1021.02 1020.49
1014.74 1014.36 1014.12 1014.02 1014.11 1014.36 1014.26 1015.14 1015.11 1015.02 1014.83 1014.36 1014.10 1014.79 1014.94 1016.34 1017.47 1018.92 1020.14 1021.13 1021.99 1022.36 1022.73 1023.24 1023.65 1023.89 1024.19 1023.96 1023.89 1023.49 1023.33 1023.07 1022.94 1022.70 1022.43 1022.20 1022.19 1022.11 1021.91 1021.65 1021.31 1021.03 1020.63 1020.25
1015.27 1015.37 1014.93 1014.70 1015.05 1015.22 1015.19 1015.46 1016.11 1016.55 1016.39 1015.76 1015.16 1014.99 1016.25 1016.90 1017.54 1018.95 1020.44 1021.42 1022.19 1022.88 1023.34 1023.51 1023.87 1024.18 1024.14 1024.22 1024.06 1023.63 1023.55 1023.34 1023.02 1022.81 1022.56 1022.34 1022.02 1021.83 1021.61 1021.26 1020.84 1020.48 1020.11 1019.75
1016.35 1016.28 1015.76 1015.68 1016.08 1016.24 1016.13 1016.51 1016.88 1016.96 1017.04 1017.09 1017.14 1016.65 1017.73 1017.83 1018.27 1019.67 1020.99 1022.06 1022.85 1023.44 1023.90 1024.11 1024.17 1023.70 1024.20 1024.16 1024.10 1023.95 1023.68 1023.26 1023.07 1022.84 1022.53 1022.16 1021.84 1021.63 1021.22 1020.86 1020.54 1020.25 1019.79 1019.36
1016.66 1016.93 1016.45 1016.11 1016.62 1016.63 1016.56 1017.09 1017.68 1018.05 1018.22 1017.65 1017.60 1017.27 1018.81 1019.49 1020.09 1020.86 1021.68 1022.65 1023.35 1023.77 1024.25 1024.37 1024.35 1024.47 1024.55 1024.47 1024.34 1024.03 1023.54 1023.22 1023.00 1022.73 1022.30 1021.94 1021.67 1021.39 1020.99 1020.61 1020.23 1019.88 1019.50 1019.11
1017.01 1017.32 1016.96 1016.74 1016.88 1017.31 1017.16 1017.49 1017.99 1018.23 1018.31 1018.01 1018.14 1018.55 1019.37 1020.45 1021.14 1021.86 1022.65 1023.23 1023.59 1023.92 1024.41 1024.68 1024.39 1024.49 1024.55 1024.59 1024.31 1023.91 1023.47 1023.17 1022.91 1022.59 1022.14 1021.72 1021.39 1021.09 1020.77 1020.39 1019.89 1019.64 1019.36 1019.04
1017.44 1017.42 1017.55 1017.24 1017.52 1017.77 1017.80 1018.11 1018.38 1018.50 1018.95 1019.03 1019.21 1019.65 1020.50 1021.02 1021.61 1022.33 1023.09 1023.59 1024.09 1024.30 1024.55 1024.66 1024.70 1024.66 1024.48 1024.42 1024.18 1023.81 1023.39 1023.09 1022.82 1022.35 1021.88 1021.52 1021.23 1020.84 1020.48 1020.19 1019.91 1019.65 1019.29 1019.08
1018.07 1017.96 1018.08 1017.76 1017.93 1018.19 1018.35 1018.88 1019.10 1019.30 1019.52 1019.70 1020.09 1020.60 1021.51 1021.96 1022.42 1022.89 1023.56 1023.89 1024.12 1024.40 1024.76 1024.89 1024.88 1024.71 1024.49 1024.38 1024.16 1023.82 1023.42 1023.08 1022.79 1022.21 1021.77 1021.43 1020.99 1020.69 1020.50 1020.35 1020.03 1019.59 1019.30 1019.19
1018.37 1018.33 1018.54 1018.17 1018.62 1018.72 1019.19 1019.61 1019.73 1020.04 1020.32 1020.45 1020.38 1021.17 1021.71 1022.07 1022.67 1023.25 1023.73 1024.16 1024.48 1024.85 1025.05 1025.09 1025.09 1024.97 1024.84 1024.56 1024.32 1023.82 1023.44 1023.14 1022.67 1022.14 1021.67 1021.14 1020.97 1020.58 1020.52 1020.48 1020.15 1019.94 1019.76 1019.43
1018.67 1018.89 1019.09 1018.90 1019.19 1019.33 1020.38 1020.35 1020.41 1020.52 1020.96 1021.11 1021.26 1021.62 1022.00 1022.40 1023.13 1023.86 1024.39 1024.63 1024.98 1025.22 1025.27 1025.26 1025.25 1025.09 1024.83 1024.48 1024.07 1023.75 1023.30 1022.87 1022.47 1021.98 1021.56 1021.10 1020.91 1020.68 1020.71 1020.49 1020.46 1020.35 1020.08 1019.78
1019.27 1019.31 1019.48 1019.76 1019.89 1020.45 1020.85 1021.29 1021.29 1021.15 1021.04 1021.59 1021.91 1022.21 1022.52 1022.92 1023.40 1024.37 1025.13 1025.37 1025.51 1025.58 1025.61 1025.61 1025.49 1025.17 1024.74 1024.30 1024.00 1023.63 1023.11 1022.69 1022.23 1021.91 1021.63 1021.35 1021.21 1020.97 1020.80 1020.73 1020.81 1020.69 1020.39 1020.08
1019.58 1019.62 1019.88 1020.38 1020.78 1021.03 1021.22 1021.38 1021.65 1021.67 1021.61 1022.17 1022.60 1022.86 1023.20 1023.43 1023.52 1024.22 1025.51 1025.71 1025.81 1025.90 1025.90 1025.72 1025.42 1025.02 1024.45 1024.04 1023.88 1023.38 1022.69 1022.42 1022.10 1021.81 1021.72 1021.51 1021.39 1021.26 1021.28 1021.42 1021.32 1021.05 1020.62 1020.17
1019.79 1020.12 1020.62 1021.23 1021.56 1021.46 1021.41 1021.53 1021.87 1022.15 1023.24 1023.06 1023.38 1023.86 1024.12 1024.36 1025.32 1025.77 1026.01 1026.03 1026.18 1026.16 1025.98 1025.72 1025.25 1024.80 1024.43 1023.98 1023.57 1022.97 1022.70 1022.36 1022.12 1021.90 1021.95 1021.93 1021.99 1022.01 1022.04 1021.84 1021.72 1021.20 1020.67 1020.41
1020.19 1020.48 1020.75 1021.20 1021.38 1021.76 1022.10 1022.17 1022.58 1023.05 1023.52 1023.86 1024.32 1024.79 1025.08 1025.52 1025.95 1026.26 1026.50 1026.41 1026.31 1026.14 1025.86 1025.56 1025.14 1024.62 1024.21 1023.87 1023.45 1022.97 1022.79 1022.48 1022.22 1021.95 1022.19 1022.10 1022.38 1022.32 1022.13 1021.86 1021.71 1021.39 1021.12 1020.76
1020.49 1020.79 1021.01 1021.35 1021.71 1022.25 1022.68 1022.94 1023.44 1023.67 1023.89 1024.58 1024.95 1025.60 1025.88 1026.11 1026.52 1026.69 1026.57 1026.45 1026.31 1026.10 1025.75 1025.46 1025.07 1024.53 1024.02 1023.77 1023.50 1023.08 1022.95 1022.77 1022.61 1022.53 1022.58 1022.60 1022.56 1022.48 1022.35 1021.96 1021.72 1021.62 1021.37 1021.03
1020.73 1021.15 1021.17 1021.57 1022.19 1022.51 1023.07 1023.71 1024.02 1024.33 1024.89 1025.41 1025.81 1026.16 1026.39 1026.69 1026.64 1026.62 1026.61 1026.43 1026.22 1025.92 1025.58 1025.31 1024.89 1024.38 1024.09 1024.01 1023.98 1023.69 1023.46 1023.18 1023.13 1023.03 1022.94 1022.90 1022.76 1022.53 1022.32 1022.21 1022.10 1021.89 1021.71 1021.51
1021.04 1021.25 1021.42 1021.57 1022.23 1022.92 1023.41 1023.85 1024.49 1025.12 1025.60 1026.00 1026.43 1026.68 1026.93 1026.90 1026.88 1026.88 1026.72 1026.55 1026.31 1025.92 1025.62 1025.42 1025.08 1024.81 1024.66 1024.50 1024.48 1024.54 1024.25 1023.97 1023.64 1023.54 1023.38 1023.13 1022.93 1022.77 1022.59 1022.52 1022.39 1022.24 1022.13 1022.05
1021.00 1021.18 1021.41 1021.48 1022.05 1022.47 1023.13 1024.24 1024.99 1025.44 1026.03 1026.50 1026.79 1027.11 1027.33 1027.29 1027.21 1027.19 1026.91 1026.75 1026.35 1025.99 1025.82 1025.52 1025.45 1025.30 1025.17 1025.01 1025.00 1024.78 1024.66 1024.47 1024.18 1023.79 1023.72 1023.61 1023.33 1023.11 1022.95 1022.72 1022.53 1022.47 1022.43 1022.37
Wind_Speed
3 4 4 2 0 2 3 2 2 2 5 3 5 6 12 9 11 7 2 7 8 10 12 13 14 16 16 12 12 11 10 8 4 2 3 3 7 4 4 3 3 5 6 7
2 10 4 3 3 4 4 2 5 1 4 3 2 6 5 13 11 9 8 6 8 11 12 14 16 13 13 13 14 12 9 6 1 2 3 3 7 5 6 3 3 5 7 8
7 4 3 4 4 3 3 5 4 4 5 2 4 4 3 5 9 10 12 6 7 9 12 15 15 11 12 12 12 9 8 10 8 7 4 3 5 5 4 4 5 6 8 9
3 5 2 5 5 4 3 3 3 4 5 9 3 7 1 6 8 12 11 9 7 10 12 13 16 14 11 8 5 1 5 5 2 4 4 4 6 6 3 5 5 7 7 8
3 4 6 7 4 2 4 5 4 4 5 4 2 5 3 4 4 7 8 7 8 9 12 13 12 9 8 4 3 4 2 2 2 4 3 4 5 3 4 4 7 8 7 7
3 2 3 4 2 3 1 4 2 1 1 5 3 4 0 2 4 2 6 7 9 12 13 12 12 10 9 9 7 7 6 5 6 4 4 4 4 6 6 8 8 8 8 7
3 3 2 3 1 2 9 9 8 3 4 5 2 5 3 1 3 1 7 10 11 11 12 11 11 8 8 9 9 7 8 7 6 5 5 5 6 7 8 9 8 9 7 7
2 3 5 5 4 6 6 4 6 9 6 11 3 4 3 3 6 11 12 10 11 11 10 11 10 9 8 9 9 8 9 8 8 7 6 5 7 6 7 7 8 7 7 7
2 0 2 2 4 5 2 3 2 3 2 5 2 1 4 4 7 8 9 10 11 10 10 10 8 8 8 9 10 11 10 8 8 9 9 9 9 9 8 9 7 6 8 7
2 3 3 3 2 8 4 2 2 2 6 9 3 5 6 7 8 7 7 9 10 10 10 9 8 9 9 8 8 10 10 10 10 9 8 7 7 7 8 8 9 9 9 9
2 1 2 2 5 5 3 4 4 1 3 5 8 5 3 6 7 8 8 10 10 8 7 7 8 7 8 10 11 11 10 9 8 7 7 8 8 8 8 8 8 8 9 8
2 2 3 4 3 2 2 2 3 3 4 4 5 7 9 7 5 10 11 10 7 7 6 5 6 12 11 11 10 9 7 7 6 7 8 8 8 8 8 8 9 8 8 8
4 1 4 2 4 3 3 2 3 2 1 8 9 5 8 8 9 9 11 8 5 2 3 9 9 9 10 10 9 8 7 7 7 8 8 7 7 7 8 8 7 7 7 7
3 3 4 6 5 2 7 8 3 4 6 9 9 13 6 6 7 8 6 4 1 4 6 5 8 9 9 8 8 7 8 8 9 9 8 7 7 7 8 7 7 7 7 7
0 4 4 4 3 4 7 5 4 2 3 4 8 7 5 2 4 4 4 1 4 5 4 7 9 10 9 7 7 8 9 9 9 8 8 8 8 7 7 8 8 8 7 6
1 3 3 4 2 2 3 3 2 3 1 1 1 4 3 2 5 5 1 4 6 5 6 9 11 10 8 8 9 9 9 9 9 8 8 8 8 8 8 8 8 8 8 6
2 4 4 8 1 4 3 4 4 3 3 3 3 2 2 1 1 2 5 5 3 5 8 10 9 7 8 9 9 10 10 9 8 8 9 8 8 7 6 8 9 9 9 8
4 3 1 5 3 6 5 5 4 2 2 3 3 3 5 5 3 3 4 3 4 7 10 9 7 8 9 9 9 9 9 8 8 9 9 9 8 6 7 8 9 9 7 8
2 3 2 2 1 1 4 3 5 4 1 2 4 5 5 5 3 5 5 5 6 9 8 7 7 8 9 9 9 9 8 8 8 9 11 9 8 6 7 8 9 8 8 7
5 5 2 2 1 2 4 4 3 3 0 1 4 6 7 7 8 5 4 6 9 8 6 6 8 8 8 10 9 10 8 8 9 9 8 7 5 6 8 8 7 7 7 6
3 4 5 4 1 4 2 2 1 3 4 4 5 5 6 6 4 4 4 6 7 6 6 7 8 8 8 9 8 9 10 9 9 8 6 5 6 6 5 4 5 8 8 7
2 2 1 2 3 1 4 1 3 4 3 4 5 5 4 3 2 4 5 5 5 6 7 8 9 9 8 8 9 9 9 9 8 7 6 6 6 5 6 6 6 7 7 7
1 2 3 3 3 2 2 2 3 1 5 4 5 4 3 3 4 3 2 3 4 6 8 7 9 10 9 9 8 10 11 10 8 8 6 7 6 5 5 6 7 5 8 7
2 2 2 2 3 1 4 5 5 7 8 7 6 5 5 5 4 4 3 4 6 7 9 9 9 9 9 9 9 10 10 8 7 7 8 6 6 7 6 4 4 4 5 5
2 4 2 3 3 3 4 4 8 9 8 8 6 5 5 4 5 3 4 6 7 8 8 7 8 9 9 8 10 10 10 9 7 6 6 6 6 6 5 5 4 5 4 3
4 2 2 2 2 2 3 10 8 8 7 5 5 6 5 3 3 2 4 6 7 8 8 8 9 10 11 11 10 10 9 9 8 8 7 6 5 4 4 5 4 4 8 9
Wind_Direction
17 65 38 326 231 97 126 102 340 334 26 86 74 72 37 27 35 19 234 189 143 142 129 138 126 120 119 121 115 90 77 49 39 29 289 326 303 278 233 233 353 348 357 336
164 46 10 109 141 130 135 86 27 252 26 235 135 58 47 36 28 2 325 253 159 133 134 134 125 124 130 119 110 109 119 124 93 292 271 315 294 315 301 360 341 19 346 336
58 23 62 142 116 72 69 27 358 326 343 88 311 221 57 34 47 33 30 58 79 121 128 134 130 127 122 127 134 123 132 187 179 224 278 279 272 255 281 344 344 351 339 340
48 347 78 71 63 357 34 343 292 303 303 307 343 307 43 10 36 44 37 44 85 118 131 142 143 133 130 133 99 196 170 233 221 256 247 253 272 291 338 332 335 321 336 339
43 38 59 64 34 340 21 15 357 324 291 299 117 265 91 357 19 38 44 59 85 108 128 131 127 108 93 86 335 301 37 79 328 315 314 295 292 317 333 329 320 319 313 324
68 19 28 3 73 60 291 273 290 126 251 255 51 318 247 3 357 39 75 84 103 104 87 80 67 61 51 51 49 49 60 54 47 44 50 30 359 350 337 334 317 320 322 327
354 31 354 4 0 186 350 329 315 289 289 301 58 250 354 346 357 64 124 81 68 79 72 70 71 66 73 66 58 58 39 34 15 12 7 354 358 340 325 323 321 321 331 334
345 196 10 357 11 318 343 322 304 305 303 309 170 237 95 35 89 97 91 92 81 78 83 88 79 69 54 38 29 27 27 14 359 357 342 351 352 333 317 320 328 325 313 308
332 281 346 43 355 327 37 340 358 279 217 265 314 157 174 143 123 116 100 93 93 100 98 88 74 48 32 26 18 15 11 2 357 353 352 346 347 340 330 319 302 291 296 300
119 285 42 353 174 62 31 80 279 1 298 300 281 289 297 214 195 152 127 114 114 112 92 67 42 27 14 9 354 11 6 356 350 347 344 338 326 313 310 302 295 292 292 292
106 321 358 303 38 3 66 50 44 311 286 297 306 304 18 308 238 171 136 128 114 90 69 51 37 19 13 356 358 4 355 347 341 335 329 316 314 314 306 300 303 303 299 297
46 85 325 347 307 287 78 75 49 339 309 289 291 286 358 339 147 139 131 122 100 72 29 28 19 15 1 354 348 338 332 331 335 326 316 315 317 315 313 313 312 305 300 307
163 69 318 316 168 157 336 72 60 84 252 268 293 311 34 68 92 111 123 115 102 69 28 21 9 354 347 338 332 332 340 337 329 322 321 324 325 321 321 319 314 307 307 309
108 137 246 289 315 328 295 303 330 267 275 306 286 317 26 68 102 117 113 110 212 54 24 353 344 342 335 329 329 335 337 334 328 324 315 317 328 325 323 321 321 330 335 336
355 241 205 251 255 252 279 314 334 237 335 258 344 339 12 86 122 107 122 12 355 336 338 352 339 334 334 342 342 340 338 335 330 317 320 330 325 315 326 341 345 346 353 3
51 246 206 261 197 271 250 35 121 103 51 231 340 64 12 74 111 99 320 282 300 3 354 342 336 341 354 348 340 334 333 336 331 328 327 325 319 337 347 347 344 345 357 353
255 186 192 271 317 300 201 77 78 87 43 317 359 42 140 160 326 296 296 327 17 2 343 341 348 351 336 332 329 326 327 326 329 335 338 329 329 332 353 345 347 357 359 355
222 185 217 286 288 270 69 63 66 93 100 123 79 43 352 1 35 45 26 37 16 348 346 352 350 341 335 328 328 323 322 320 322 329 331 335 326 342 356 358 5 6 358 0
284 166 140 268 239 94 181 9 336 343 37 154 21 12 6 352 296 105 48 35 5 353 348 344 332 320 316 322 329 324 330 336 340 347 341 338 335 350 3 14 8 356 347 347
78 76 74 108 69 292 251 207 349 174 147 169 355 6 1 343 319 42 12 5 1 1 359 330 325 318 317 337 328 316 328 337 346 350 342 344 12 17 20 19 4 349 354 344
7 34 75 114 204 265 285 182 317 262 38 49 38 34 9 351 359 2 354 2 358 343 330 324 321 320 331 327 324 334 351 350 351 338 3 19 24 33 27 3 355 351 355 359
346 161 197 193 223 98 37 166 277 58 76 71 60 38 35 40 35 3 359 338 334 332 330 332 325 330 336 341 331 352 356 353 350 13 35 26 33 21 11 357 8 7 356 352
253 298 350 275 42 54 30 35 82 59 103 77 68 60 61 57 34 21 20 -0 338 333 333 337 331 325 353 357 353 355 3 359 7 27 28 29 16 4 356 4 9 5 1 2
181 175 253 241 140 129 118 106 86 81 95 87 77 77 80 97 87 79 52 10 350 347 343 339 342 355 3 8 15 13 9 8 26 20 28 21 17 5 15 8 5 358 0 354
27 173 157 254 180 157 163 118 117 105 98 88 76 92 98 105 88 54 21 358 351 341 349 354 3 7 13 14 24 18 14 15 19 20 16 16 19 17 14 22 11 5 25 6
181 161 228 23 73 60 111 141 137 119 108 99 121 123 103 115 91 357 2 359 347 356 6 16 25 28 20 28 26 28 26 26 18 33 33 22 8 4 6 14 20 29 28 43